Time,TemperatureF,DewpointF,PressureIn,WindDirection,WindDirectionDegrees,WindSpeedMPH,WindSpeedGustMPH,Humidity,HourlyPrecipIn,Conditions,Clouds,dailyrainin,SolarRadiationWatts/m^2,SoftwareType,DateUTC
2013-05-02 00:01:00,30.0,20.0,30.57,ESE,117,3.0,4.0,63,-99.99,,,-99.99,-0.100000,,2013-05-02 06:01:00,
2013-05-02 00:11:00,31.0,20.0,30.57,SSE,150,3.0,4.0,62,-99.99,,,-99.99,0.000000,,2013-05-02 06:11:00,
2013-05-02 00:21:00,32.0,20.0,30.58,SSE,168,3.0,4.0,60,-99.99,,,-99.99,-0.100000,,2013-05-02 06:21:00,
2013-05-02 00:31:00,33.0,20.0,30.58,SE,146,2.0,3.0,58,-99.99,,,-99.99,-0.100000,,2013-05-02 06:31:00,
2013-05-02 00:41:00,32.0,19.0,30.58,SSE,149,3.0,4.0,58,-99.99,,,-99.99,-0.100000,,2013-05-02 06:41:00,
2013-05-02 00:51:00,31.0,18.0,30.58,SSE,152,4.0,4.0,58,-99.99,,,-99.99,-0.100000,,2013-05-02 06:51:00,
2013-05-02 01:01:00,30.0,18.0,30.59,South,184,2.0,4.0,60,-99.99,,,-99.99,0.000000,,2013-05-02 07:01:00,
2013-05-02 01:11:00,28.0,18.0,30.59,South,178,2.0,4.0,64,-99.99,,,-99.99,-0.100000,,2013-05-02 07:11:00,
2013-05-02 01:21:00,29.0,19.0,30.59,South,174,4.0,4.0,66,-99.99,,,-99.99,-0.100000,,2013-05-02 07:21:00,
2013-05-02 01:31:00,29.0,19.0,30.59,South,175,4.0,5.0,64,-99.99,,,-99.99,0.100000,,2013-05-02 07:31:00,
2013-05-02 01:41:00,29.0,19.0,30.59,South,178,4.0,5.0,65,-99.99,,,-99.99,-0.100000,,2013-05-02 07:41:00,
2013-05-02 01:51:00,28.0,20.0,30.59,SW,233,1.0,2.0,70,-99.99,,,-99.99,-0.100000,,2013-05-02 07:51:00,
2013-05-02 02:02:00,28.0,18.0,30.59,South,185,1.0,2.0,65,-99.99,,,-99.99,-0.100000,,2013-05-02 08:02:00,
2013-05-02 02:11:00,28.0,19.0,30.59,NNE,12,4.0,6.0,68,-99.99,,,-99.99,-0.400000,,2013-05-02 08:11:00,
2013-05-02 02:21:00,28.0,18.0,30.59,NNW,345,4.0,6.0,65,-99.99,,,-99.99,-0.100000,,2013-05-02 08:21:00,
2013-05-02 02:32:00,30.0,18.0,30.59,SSW,200,2.0,2.0,62,-99.99,,,-99.99,-0.100000,,2013-05-02 08:32:00,
2013-05-02 02:42:00,28.0,18.0,30.60,NNE,17,5.0,6.0,66,-99.99,,,-99.99,0.200000,,2013-05-02 08:42:00,
2013-05-02 02:52:00,29.0,18.0,30.60,NNE,29,6.0,7.0,62,-99.99,,,-99.99,0.400000,,2013-05-02 08:52:00,
2013-05-02 03:01:00,30.0,16.0,30.60,NE,49,4.0,5.0,56,-99.99,,,-99.99,-0.100000,,2013-05-02 09:01:00,
2013-05-02 03:11:00,28.0,18.0,30.60,ENE,60,4.0,6.0,66,-99.99,,,-99.99,0.100000,,2013-05-02 09:11:00,
2013-05-02 03:21:00,28.0,16.0,30.61,ENE,70,2.0,3.0,59,-99.99,,,-99.99,0.000000,,2013-05-02 09:21:00,
2013-05-02 03:32:00,27.0,15.0,30.60,East,92,3.0,4.0,60,-99.99,,,-99.99,-0.100000,,2013-05-02 09:32:00,
2013-05-02 03:42:00,27.0,16.0,30.61,East,97,2.0,3.0,60,-99.99,,,-99.99,-0.200000,,2013-05-02 09:42:00,
2013-05-02 03:52:00,26.0,15.0,30.61,ENE,72,2.0,3.0,64,-99.99,,,-99.99,-0.100000,,2013-05-02 09:52:00,
2013-05-02 04:02:00,26.0,15.0,30.62,SE,126,2.0,3.0,62,-99.99,,,-99.99,-0.100000,,2013-05-02 10:02:00,
2013-05-02 04:12:00,27.0,16.0,30.62,ENE,61,4.0,6.0,62,-99.99,,,-99.99,0.000000,,2013-05-02 10:12:00,
2013-05-02 04:22:00,25.0,15.0,30.62,ENE,64,4.0,6.0,65,-99.99,,,-99.99,0.000000,,2013-05-02 10:22:00,
2013-05-02 04:32:00,26.0,14.0,30.62,NE,51,4.0,5.0,62,-99.99,,,-99.99,-0.200000,,2013-05-02 10:32:00,
2013-05-02 04:42:00,24.0,15.0,30.62,NE,45,4.0,5.0,65,-99.99,,,-99.99,-0.100000,,2013-05-02 10:42:00,
2013-05-02 04:52:00,24.0,15.0,30.62,NE,51,5.0,6.0,67,-99.99,,,-99.99,-0.100000,,2013-05-02 10:52:00,
2013-05-02 05:02:00,24.0,15.0,30.62,NE,49,4.0,5.0,68,-99.99,,,-99.99,0.200000,,2013-05-02 11:02:00,
2013-05-02 05:11:00,24.0,16.0,30.63,ENE,57,4.0,5.0,69,-99.99,,,-99.99,-0.300000,,2013-05-02 11:11:00,
2013-05-02 05:21:00,24.0,15.0,30.63,NE,49,4.0,4.0,67,-99.99,,,-99.99,0.000000,,2013-05-02 11:21:00,
2013-05-02 05:31:00,24.0,15.0,30.63,East,88,3.0,4.0,69,-99.99,,,-99.99,0.000000,,2013-05-02 11:31:00,
2013-05-02 05:41:00,24.0,15.0,30.63,ENE,68,3.0,4.0,67,-99.99,,,-99.99,-0.100000,,2013-05-02 11:41:00,
2013-05-02 05:52:00,23.0,15.0,30.63,ENE,57,2.0,3.0,68,-99.99,,,-99.99,-0.100000,,2013-05-02 11:52:00,
2013-05-02 06:01:00,21.0,14.0,30.63,ENE,58,3.0,3.0,73,-99.99,,,-99.99,0.000000,,2013-05-02 12:01:00,
2013-05-02 06:11:00,23.0,14.0,30.63,ENE,67,4.0,4.0,67,-99.99,,,-99.99,0.000000,,2013-05-02 12:11:00,
2013-05-02 06:21:00,22.0,14.0,30.63,ENE,73,4.0,4.0,70,-99.99,,,-99.99,0.100000,,2013-05-02 12:21:00,
2013-05-02 06:32:00,24.0,15.0,30.64,ENE,74,4.0,5.0,67,-99.99,,,-99.99,2.300000,,2013-05-02 12:32:00,
2013-05-02 06:41:00,23.0,15.0,30.64,ENE,72,3.0,3.0,72,-99.99,,,-99.99,7.300000,,2013-05-02 12:41:00,
2013-05-02 06:52:00,22.0,14.0,30.64,ENE,60,3.0,4.0,69,-99.99,,,-99.99,14.400000,,2013-05-02 12:52:00,
2013-05-02 07:01:00,23.0,14.0,30.64,ENE,60,4.0,5.0,69,-99.99,,,-99.99,35.500000,,2013-05-02 13:01:00,
2013-05-02 07:11:00,24.0,15.0,30.64,ENE,63,4.0,4.0,69,-99.99,,,-99.99,64.400002,,2013-05-02 13:11:00,
2013-05-02 07:21:00,24.0,14.0,30.64,NE,50,4.0,5.0,65,-99.99,,,-99.99,98.300003,,2013-05-02 13:21:00,
2013-05-02 07:31:00,24.0,15.0,30.64,NE,34,3.0,4.0,67,-99.99,,,-99.99,133.399994,,2013-05-02 13:31:00,
2013-05-02 07:41:00,25.0,17.0,30.64,NNE,29,4.0,4.0,71,-99.99,,,-99.99,163.600006,,2013-05-02 13:41:00,
2013-05-02 07:52:00,27.0,17.0,30.65,NNE,16,4.0,4.0,65,-99.99,,,-99.99,195.000000,,2013-05-02 13:52:00,
2013-05-02 08:02:00,28.0,17.0,30.65,North,11,4.0,5.0,63,-99.99,,,-99.99,227.600006,,2013-05-02 14:02:00,
2013-05-02 08:11:00,29.0,17.0,30.65,North,10,3.0,4.0,61,-99.99,,,-99.99,261.600006,,2013-05-02 14:11:00,
2013-05-02 08:21:00,30.0,17.0,30.65,NNE,25,2.0,3.0,59,-99.99,,,-99.99,295.399994,,2013-05-02 14:21:00,
2013-05-02 08:31:00,31.0,18.0,30.65,NNE,23,3.0,4.0,59,-99.99,,,-99.99,329.799988,,2013-05-02 14:31:00,
2013-05-02 08:42:00,32.0,19.0,30.65,NNE,22,3.0,4.0,57,-99.99,,,-99.99,363.899994,,2013-05-02 14:42:00,
2013-05-02 08:52:00,33.0,20.0,30.65,NE,46,3.0,3.0,58,-99.99,,,-99.99,399.700012,,2013-05-02 14:52:00,
2013-05-02 09:02:00,34.0,19.0,30.65,NE,36,2.0,3.0,54,-99.99,,,-99.99,435.200012,,2013-05-02 15:02:00,
2013-05-02 09:11:00,35.0,19.0,30.65,NE,49,2.0,3.0,51,-99.99,,,-99.99,469.200012,,2013-05-02 15:11:00,
2013-05-02 09:21:00,36.0,19.0,30.65,NE,53,2.0,3.0,49,-99.99,,,-99.99,502.399994,,2013-05-02 15:21:00,
2013-05-02 09:32:00,38.0,19.0,30.65,North,1,1.0,2.0,44,-99.99,,,-99.99,535.500000,,2013-05-02 15:32:00,
2013-05-02 09:43:00,39.0,17.0,30.65,NNW,334,1.0,2.0,40,-99.99,,,-99.99,568.099976,,2013-05-02 15:43:00,
2013-05-02 10:02:00,42.0,16.0,30.65,NW,316,2.0,4.0,34,-99.99,,,-99.99,632.200012,,2013-05-02 16:02:00,
2013-05-02 10:12:00,43.0,16.0,30.65,NNW,333,4.0,5.0,33,-99.99,,,-99.99,663.099976,,2013-05-02 16:12:00,
2013-05-02 10:22:00,44.0,16.0,30.65,WSW,250,3.0,4.0,32,-99.99,,,-99.99,692.400024,,2013-05-02 16:22:00,
2013-05-02 10:32:00,44.0,16.0,30.64,North,9,3.0,5.0,32,-99.99,,,-99.99,721.599976,,2013-05-02 16:32:00,
2013-05-02 10:42:00,45.0,16.0,30.64,WNW,301,2.0,5.0,31,-99.99,,,-99.99,748.500000,,2013-05-02 16:42:00,
2013-05-02 10:52:00,46.0,15.0,30.63,SE,135,1.0,5.0,28,-99.99,,,-99.99,775.799988,,2013-05-02 16:52:00,
2013-05-02 11:02:00,47.0,16.0,30.64,ESE,107,3.0,5.0,28,-99.99,,,-99.99,804.000000,,2013-05-02 17:02:00,
2013-05-02 11:12:00,47.0,17.0,30.63,SW,230,5.0,8.0,29,-99.99,,,-99.99,826.000000,,2013-05-02 17:12:00,
2013-05-02 11:22:00,48.0,15.0,30.63,East,87,3.0,5.0,26,-99.99,,,-99.99,849.000000,,2013-05-02 17:22:00,
2013-05-02 11:31:00,49.0,15.0,30.63,South,185,4.0,5.0,26,-99.99,,,-99.99,872.000000,,2013-05-02 17:31:00,
2013-05-02 11:41:00,49.0,17.0,30.63,SSW,213,4.0,7.0,28,-99.99,,,-99.99,894.000000,,2013-05-02 17:41:00,
2013-05-02 11:51:00,50.0,17.0,30.62,SSW,212,5.0,9.0,27,-99.99,,,-99.99,913.000000,,2013-05-02 17:51:00,
2013-05-02 12:01:00,50.0,15.0,30.62,WNW,289,4.0,6.0,24,-99.99,,,-99.99,928.000000,,2013-05-02 18:01:00,
2013-05-02 12:11:00,50.0,13.0,30.62,NNW,346,3.0,6.0,22,-99.99,,,-99.99,939.000000,,2013-05-02 18:11:00,
2013-05-02 12:21:00,51.0,15.0,30.61,West,267,5.0,7.0,23,-99.99,,,-99.99,949.000000,,2013-05-02 18:21:00,
2013-05-02 12:31:00,51.0,15.0,30.61,WNW,284,6.0,10.0,23,-99.99,,,-99.99,928.000000,,2013-05-02 18:31:00,
2013-05-02 12:41:00,51.0,11.0,30.60,NW,305,4.0,9.0,19,-99.99,,,-99.99,920.000000,,2013-05-02 18:41:00,
2013-05-02 12:51:00,51.0,11.0,30.60,NW,310,3.0,7.0,19,-99.99,,,-99.99,987.000000,,2013-05-02 18:51:00,
2013-05-02 13:01:00,52.0,14.0,30.59,SW,217,6.0,10.0,21,-99.99,,,-99.99,996.000000,,2013-05-02 19:01:00,
2013-05-02 13:11:00,52.0,13.0,30.59,SW,232,4.0,7.0,21,-99.99,,,-99.99,1015.000000,,2013-05-02 19:11:00,
2013-05-02 13:21:00,53.0,12.0,30.58,WSW,256,6.0,9.0,19,-99.99,,,-99.99,977.000000,,2013-05-02 19:21:00,
2013-05-02 13:31:00,52.0,12.0,30.58,West,265,5.0,9.0,20,-99.99,,,-99.99,967.000000,,2013-05-02 19:31:00,
2013-05-02 13:41:00,53.0,12.0,30.57,West,263,4.0,6.0,19,-99.99,,,-99.99,999.000000,,2013-05-02 19:41:00,
2013-05-02 13:52:00,53.0,13.0,30.57,WNW,294,4.0,7.0,19,-99.99,,,-99.99,834.000000,,2013-05-02 19:52:00,
2013-05-02 14:01:00,53.0,12.0,30.57,North,352,5.0,6.0,19,-99.99,,,-99.99,988.000000,,2013-05-02 20:01:00,
2013-05-02 14:11:00,54.0,15.0,30.56,West,262,6.0,9.0,21,-99.99,,,-99.99,876.000000,,2013-05-02 20:11:00,
2013-05-02 14:21:00,54.0,13.0,30.56,SE,139,3.0,6.0,19,-99.99,,,-99.99,856.000000,,2013-05-02 20:21:00,
2013-05-02 14:32:00,55.0,15.0,30.55,NNW,335,5.0,8.0,20,-99.99,,,-99.99,968.000000,,2013-05-02 20:32:00,
2013-05-02 14:41:00,55.0,13.0,30.55,WNW,298,5.0,7.0,18,-99.99,,,-99.99,948.000000,,2013-05-02 20:41:00,
2013-05-02 14:52:00,56.0,14.0,30.54,West,263,6.0,8.0,18,-99.99,,,-99.99,890.000000,,2013-05-02 20:52:00,
2013-05-02 15:01:00,56.0,14.0,30.54,WNW,292,6.0,9.0,18,-99.99,,,-99.99,873.000000,,2013-05-02 21:01:00,
2013-05-02 15:11:00,56.0,13.0,30.54,WNW,299,4.0,8.0,18,-99.99,,,-99.99,867.000000,,2013-05-02 21:11:00,
2013-05-02 15:21:00,56.0,14.0,30.53,West,268,7.0,10.0,18,-99.99,,,-99.99,837.000000,,2013-05-02 21:21:00,
2013-05-02 15:33:00,56.0,13.0,30.52,NW,306,5.0,9.0,18,-99.99,,,-99.99,775.400024,,2013-05-02 21:33:00,
2013-05-02 15:42:00,57.0,15.0,30.52,WSW,253,8.0,14.0,19,-99.99,,,-99.99,909.000000,,2013-05-02 21:42:00,
2013-05-02 15:53:00,57.0,16.0,30.51,NW,305,7.0,14.0,19,-99.99,,,-99.99,891.000000,,2013-05-02 21:53:00,
2013-05-02 16:02:00,57.0,15.0,30.51,WSW,238,5.0,11.0,18,-99.99,,,-99.99,832.000000,,2013-05-02 22:02:00,
2013-05-02 16:12:00,58.0,17.0,30.51,SW,234,6.0,9.0,19,-99.99,,,-99.99,855.000000,,2013-05-02 22:12:00,
2013-05-02 16:22:00,57.0,16.0,30.50,NW,323,5.0,9.0,19,-99.99,,,-99.99,809.000000,,2013-05-02 22:22:00,
2013-05-02 16:32:00,58.0,14.0,30.49,West,259,7.0,11.0,17,-99.99,,,-99.99,802.000000,,2013-05-02 22:32:00,
2013-05-02 16:42:00,59.0,15.0,30.48,NW,308,7.0,11.0,17,-99.99,,,-99.99,752.000000,,2013-05-02 22:42:00,
2013-05-02 16:52:00,59.0,13.0,30.48,WSW,250,7.0,13.0,16,-99.99,,,-99.99,652.700012,,2013-05-02 22:52:00,
2013-05-02 17:02:00,58.0,10.0,30.47,WNW,283,6.0,11.0,14,-99.99,,,-99.99,696.000000,,2013-05-02 23:02:00,
2013-05-02 17:11:00,59.0,10.0,30.47,WSW,241,4.0,6.0,14,-99.99,,,-99.99,685.099976,,2013-05-02 23:11:00,
2013-05-02 17:22:00,59.0,11.0,30.47,WSW,258,6.0,12.0,14,-99.99,,,-99.99,608.400024,,2013-05-02 23:22:00,
2013-05-02 17:31:00,58.0,10.0,30.46,WNW,282,2.0,5.0,14,-99.99,,,-99.99,561.400024,,2013-05-02 23:31:00,
2013-05-02 17:42:00,59.0,11.0,30.45,SW,216,4.0,8.0,14,-99.99,,,-99.99,378.399994,,2013-05-02 23:42:00,
2013-05-02 17:51:00,58.0,13.0,30.45,West,277,5.0,8.0,16,-99.99,,,-99.99,245.800003,,2013-05-02 23:51:00,
2013-05-02 18:01:00,58.0,11.0,30.45,WNW,283,3.0,7.0,15,-99.99,,,-99.99,208.199997,,2013-05-03 00:01:00,
2013-05-02 18:11:00,58.0,12.0,30.44,West,269,6.0,11.0,16,-99.99,,,-99.99,411.899994,,2013-05-03 00:11:00,
2013-05-02 18:21:00,59.0,12.0,30.44,SSW,209,4.0,8.0,15,-99.99,,,-99.99,602.799988,,2013-05-03 00:21:00,
2013-05-02 18:31:00,59.0,13.0,30.44,NNE,27,3.0,7.0,15,-99.99,,,-99.99,500.299988,,2013-05-03 00:31:00,
2013-05-02 18:41:00,59.0,14.0,30.43,SW,223,7.0,9.0,16,-99.99,,,-99.99,145.100006,,2013-05-03 00:41:00,
2013-05-02 18:52:00,58.0,14.0,30.43,SW,234,3.0,4.0,17,-99.99,,,-99.99,104.199997,,2013-05-03 00:52:00,
2013-05-02 19:01:00,58.0,14.0,30.42,SW,231,5.0,7.0,17,-99.99,,,-99.99,107.099998,,2013-05-03 01:01:00,
2013-05-02 19:11:00,59.0,16.0,30.42,West,264,4.0,6.0,18,-99.99,,,-99.99,318.899994,,2013-05-03 01:11:00,
2013-05-02 19:21:00,59.0,16.0,30.42,SW,236,5.0,8.0,18,-99.99,,,-99.99,263.100006,,2013-05-03 01:21:00,
2013-05-02 19:31:00,59.0,17.0,30.41,SSW,202,5.0,8.0,19,-99.99,,,-99.99,278.299988,,2013-05-03 01:31:00,
2013-05-02 19:41:00,58.0,15.0,30.41,SSW,208,5.0,7.0,18,-99.99,,,-99.99,190.800003,,2013-05-03 01:41:00,
2013-05-02 19:51:00,58.0,16.0,30.41,South,190,6.0,7.0,18,-99.99,,,-99.99,159.199997,,2013-05-03 01:51:00,
2013-05-02 20:01:00,58.0,16.0,30.40,SSW,204,4.0,5.0,19,-99.99,,,-99.99,127.300003,,2013-05-03 02:01:00,
2013-05-02 20:11:00,58.0,16.0,30.41,SSW,196,4.0,5.0,19,-99.99,,,-99.99,91.699997,,2013-05-03 02:11:00,
2013-05-02 20:21:00,57.0,17.0,30.40,South,187,3.0,4.0,20,-99.99,,,-99.99,58.200001,,2013-05-03 02:21:00,
2013-05-02 20:31:00,56.0,18.0,30.40,South,189,3.0,4.0,22,-99.99,,,-99.99,22.600000,,2013-05-03 02:31:00,
2013-05-02 20:41:00,56.0,18.0,30.39,SSW,192,3.0,4.0,22,-99.99,,,-99.99,11.300000,,2013-05-03 02:41:00,
2013-05-02 20:52:00,55.0,18.0,30.39,SSW,194,3.0,4.0,23,-99.99,,,-99.99,4.200000,,2013-05-03 02:52:00,
2013-05-02 21:01:00,53.0,22.0,30.39,SSE,167,3.0,4.0,29,-99.99,,,-99.99,0.800000,,2013-05-03 03:01:00,
2013-05-02 21:11:00,49.0,23.0,30.39,SE,140,4.0,5.0,35,-99.99,,,-99.99,0.200000,,2013-05-03 03:11:00,
2013-05-02 21:21:00,46.0,25.0,30.39,SE,142,4.0,5.0,43,-99.99,,,-99.99,-0.100000,,2013-05-03 03:21:00,
2013-05-02 21:32:00,45.0,25.0,30.38,SE,144,5.0,6.0,45,-99.99,,,-99.99,0.100000,,2013-05-03 03:32:00,
2013-05-02 21:42:00,44.0,25.0,30.38,SSE,151,6.0,7.0,45,-99.99,,,-99.99,0.100000,,2013-05-03 03:42:00,
2013-05-02 21:52:00,44.0,24.0,30.38,SSE,147,6.0,7.0,45,-99.99,,,-99.99,-0.100000,,2013-05-03 03:52:00,
2013-05-02 22:02:00,44.0,24.0,30.38,SSE,150,6.0,7.0,45,-99.99,,,-99.99,0.100000,,2013-05-03 04:02:00,
2013-05-02 22:12:00,43.0,23.0,30.38,SE,140,6.0,7.0,44,-99.99,,,-99.99,-0.300000,,2013-05-03 04:12:00,
2013-05-02 22:22:00,44.0,22.0,30.38,SE,127,7.0,8.0,42,-99.99,,,-99.99,0.100000,,2013-05-03 04:22:00,
2013-05-02 22:32:00,45.0,22.0,30.38,SE,126,9.0,9.0,39,-99.99,,,-99.99,0.100000,,2013-05-03 04:32:00,
2013-05-02 22:42:00,45.0,22.0,30.38,SE,129,7.0,8.0,40,-99.99,,,-99.99,0.000000,,2013-05-03 04:42:00,
2013-05-02 22:52:00,43.0,22.0,30.38,SE,135,7.0,7.0,42,-99.99,,,-99.99,-0.100000,,2013-05-03 04:52:00,
2013-05-02 23:02:00,43.0,22.0,30.38,SSE,153,6.0,7.0,44,-99.99,,,-99.99,-0.100000,,2013-05-03 05:02:00,
2013-05-02 23:11:00,44.0,22.0,30.38,SSE,160,5.0,8.0,42,-99.99,,,-99.99,0.000000,,2013-05-03 05:11:00,
2013-05-02 23:21:00,46.0,20.0,30.37,SSE,167,8.0,12.0,36,-99.99,,,-99.99,0.100000,,2013-05-03 05:21:00,
2013-05-02 23:32:00,47.0,20.0,30.37,SSE,159,8.0,10.0,34,-99.99,,,-99.99,-0.200000,,2013-05-03 05:32:00,
2013-05-02 23:42:00,45.0,21.0,30.37,SSE,159,8.0,11.0,38,-99.99,,,-99.99,-0.100000,,2013-05-03 05:42:00,
2013-05-02 23:52:00,43.0,22.0,30.37,SE,132,6.0,8.0,42,-99.99,,,-99.99,0.000000,,2013-05-03 05:52:00,